Weather History for Bloomington, IL

Change the Weather History Date:

Wednesday, November 21, 2012

  Actual Average Record
Temperature  
Mean Temperature 42 °F -  
Max Temperature 53 °F 32 °F 61 °F (2007)
Min Temperature 32 °F 25 °F 8 °F (2014)
Degree Days  
Heating Degree Days 22    
Moisture  
Dew Point 42 °F    
Average Humidity 99    
Maximum Humidity 100    
Minimum Humidity 86    
Precipitation  
Precipitation 0.00 in - - ()
Sea Level Pressure  
Sea Level Pressure 30.22 in    
Wind  
Wind Speed 6 mph (SW)    
Max Wind Speed 13 mph    
Max Gust Speed -    
Visibility 2 miles    
Events Fog , Rain , Snow    
Averages and records for this station are not official NWS values.
T = Trace of Precipitation, MM = Missing Value Source: NWS Daily Summary

Daily Weather History Graph

Daily Weather History Graph

Search for Another Location

Airport:

Trip Planner

Search our weather history database for the weather conditions in past years. The results will help you decide how hot, cold, wet, or windy it might be!

Date:

Astronomy

Nov. 21, 2012 Rise Set
Actual Time 6:49 AM CST 4:33 PM CST
Civil Twilight 6:19 AM CST 5:03 PM CST
Nautical Twilight 5:46 AM CST 5:36 PM CST
Astronomical Twilight 5:13 AM CST 6:09 PM CST
Moon 12:51 PM CST (11/21) 12:06 AM CST (11/21)
Length of Visible Light 10h 43m
Length of Day
9h 44m
First Quarter, 62% of the Moon is Illuminated
Nov 21
First Quarter
Nov 28
Full
Dec 6
Last Quarter
Dec 13
New
Dec 19
First Quarter

Hourly Weather History & Observations

Time (CST) Temp. Windchill Dew Point Humidity Pressure Visibility Wind Dir Wind Speed Gust Speed Precip Events Conditions
12:23 AM 42.8 °F 41.1 °F 42.8 °F 100% 30.19 in 1.5 mi NW 3.5 mph - N/A   Clear
12:31 AM 42.8 °F 40.1 °F 42.8 °F 100% 30.19 in 1.2 mi NW 4.6 mph - N/A   Clear
12:37 AM 41.0 °F 38.0 °F 41.0 °F 100% 30.19 in 2.0 mi NW 4.6 mph - N/A   Clear
12:56 AM 43.0 °F 40.3 °F 43.0 °F 100% 30.21 in 3.0 mi NW 4.6 mph - N/A   Clear
1:40 AM 42.8 °F 38.6 °F 42.8 °F 100% 30.20 in 2.5 mi NNW 6.9 mph - N/A   Clear
1:56 AM 41.9 °F 37.5 °F 41.9 °F 100% 30.22 in 3.0 mi NNW 6.9 mph - N/A   Clear
2:14 AM 41.0 °F 37.1 °F 41.0 °F 100% 30.21 in 2.5 mi NNW 5.8 mph - N/A   Clear
2:56 AM 41.9 °F 39.0 °F 41.9 °F 100% 30.22 in 2.0 mi North 4.6 mph - N/A   Clear
3:03 AM 41.0 °F 39.0 °F 41.0 °F 100% 30.21 in 1.5 mi NNW 3.5 mph - N/A   Clear
3:07 AM 42.8 °F 41.1 °F 42.8 °F 100% 30.21 in 1.0 mi North 3.5 mph - N/A   Clear
3:11 AM 39.2 °F 37.0 °F 39.2 °F 100% 30.21 in 0.5 mi East 3.5 mph - N/A Fog Fog
3:18 AM 39.2 °F - 39.2 °F 100% 30.21 in 0.2 mi Calm Calm - 0.00 in Fog , Rain Light Rain
3:56 AM 37.9 °F 35.5 °F 37.9 °F 100% 30.23 in 0.2 mi East 3.5 mph - 0.00 in Fog , Rain Light Rain
4:07 AM 37.4 °F - 37.4 °F 100% 30.20 in 0.2 mi Calm Calm - 0.00 in Fog , Snow Light Snow
4:16 AM 35.6 °F 32.8 °F 35.6 °F 100% 30.20 in 0.2 mi ESE 3.5 mph - 0.00 in Fog , Snow Light Snow
4:56 AM 32.9 °F - 32.9 °F 100% 30.26 in 0.2 mi Calm Calm - 0.00 in Fog Fog
5:08 AM 33.8 °F - 33.8 °F 100% 30.23 in 0.2 mi Calm Calm - 0.00 in Fog Fog
5:47 AM 32.0 °F 28.7 °F 32.0 °F 100% 30.22 in 0.2 mi SSW 3.5 mph - 0.00 in Fog Fog
5:56 AM 32.0 °F 28.7 °F 32.0 °F 100% 30.25 in 0.1 mi SSW 3.5 mph - 0.00 in Fog Fog
6:56 AM 32.9 °F 27.5 °F 32.9 °F 100% 30.27 in 0.1 mi SW 5.8 mph - 0.00 in Fog Fog
7:56 AM 32.9 °F 28.5 °F 32.9 °F 100% 30.28 in 0.1 mi SSW 4.6 mph - N/A Fog Fog
8:56 AM 37.9 °F 33.5 °F 37.9 °F 100% 30.29 in 0.1 mi SW 5.8 mph - N/A Fog Fog
9:56 AM 41.0 °F 36.4 °F 41.0 °F 100% 30.30 in 0.1 mi SW 6.9 mph - N/A Fog Fog
10:43 AM 53.6 °F - 51.8 °F 94% 30.26 in 0.1 mi SW 6.9 mph - N/A Fog Fog
10:56 AM 45.9 °F 41.7 °F 45.9 °F 100% 30.28 in 0.8 mi SSW 8.1 mph - N/A   Overcast
11:15 AM 46.4 °F 42.9 °F 46.4 °F 100% 30.25 in 2.5 mi SSW 6.9 mph - N/A   Mostly Cloudy
11:56 AM 48.9 °F - 48.9 °F 100% 30.26 in 3.0 mi SSW 9.2 mph - N/A   Scattered Clouds
12:56 PM 48.9 °F - 48.9 °F 100% 30.25 in 2.5 mi WSW 9.2 mph - N/A   Mostly Cloudy
1:07 PM 50.0 °F - 48.2 °F 94% 30.22 in 3.0 mi WSW 8.1 mph - N/A   Scattered Clouds
2:56 PM 52.9 °F - 48.9 °F 86% 30.20 in 5.0 mi SSW 10.4 mph - N/A   Clear
3:56 PM 52.0 °F - 48.9 °F 89% 30.20 in 5.0 mi SSW 9.2 mph - N/A   Clear
4:56 PM 45.9 °F 41.7 °F 45.9 °F 100% 30.21 in 4.0 mi SSW 8.1 mph - N/A   Clear
5:56 PM 45.0 °F 39.3 °F 45.0 °F 100% 30.20 in 4.0 mi SSW 11.5 mph - N/A   Clear
6:56 PM 43.9 °F 39.3 °F 43.9 °F 100% 30.20 in 2.5 mi South 8.1 mph - N/A   Clear
7:56 PM 41.9 °F 36.3 °F 41.9 °F 100% 30.20 in 1.8 mi SSW 9.2 mph - N/A   Clear
8:56 PM 41.9 °F 35.4 °F 41.9 °F 100% 30.19 in 2.0 mi SSW 11.5 mph - N/A   Clear
9:22 PM 44.6 °F 38.8 °F 44.6 °F 100% 30.16 in 3.0 mi SSW 11.5 mph - N/A   Clear
9:56 PM 43.0 °F 37.7 °F 43.0 °F 100% 30.19 in 3.0 mi SSW 9.2 mph - N/A   Clear
10:03 PM 42.8 °F 37.0 °F 42.8 °F 100% 30.15 in 2.5 mi SSW 10.4 mph - N/A   Clear
10:31 PM 42.8 °F 37.0 °F 42.8 °F 100% 30.15 in 3.0 mi SSW 10.4 mph - N/A   Clear
10:45 PM 42.8 °F 37.0 °F 42.8 °F 100% 30.15 in 2.5 mi SSW 10.4 mph - N/A   Clear
10:56 PM 41.0 °F 34.3 °F 41.0 °F 100% 30.17 in 2.0 mi SSW 11.5 mph - N/A   Clear
11:56 PM 39.9 °F 32.5 °F 39.9 °F 100% 30.16 in 2.0 mi SSW 12.7 mph - N/A   Clear